FW5157 Weather Reports


time (UTC)temp
F
wind
direction
speed
knots
gust
knots
rain 1hr
in
rain 24hr
in
rain mn
in
humidity
%
barometer
mb
20260508024549 42 0 0.0 0.9 0.00 0.00 0.00 84 1014.6
20260508023052 42 0 0.0 0.0 0.00 0.00 0.00 84 1014.6
20260508021552 42 0 0.0 0.0 0.00 0.00 0.00 84 1014.6
20260508020044 42 0 0.0 0.9 0.00 0.00 0.00 84 1014.5
20260508014551 42 0 0.0 0.0 0.00 0.00 0.00 83 1014.6
20260508013051 42 0 0.0 0.9 0.00 0.00 0.00 83 1014.5
20260508011548 42 0 0.0 0.9 0.00 0.00 0.00 82 1014.6
20260508010051 43 173 0.0 0.9 0.00 0.00 0.00 82 1014.7
20260508004559 43 0 0.0 0.9 0.00 0.00 0.00 81 1014.6
20260508003050 43 0 0.0 0.0 0.00 0.00 0.00 81 1014.7
20260508001552 44 0 0.0 0.9 0.00 0.00 0.00 80 1014.7
20260508000056 44 0 0.0 0.0 0.00 0.00 0.00 80 1014.7
20260507234550 45 0 0.0 0.9 0.00 0.00 0.00 79 1014.9
20260507233052 46 0 0.0 0.0 0.00 0.00 0.00 79 1015.1
20260507231556 46 0 0.0 0.0 0.00 0.00 0.00 78 1015.2
20260507230048 47 0 0.0 1.7 0.00 0.00 0.00 77 1015.3
20260507224557 48 0 0.0 0.9 0.00 0.00 0.00 76 1015.2
20260507223050 49 0 0.0 0.0 0.00 0.00 0.00 75 1015.1
20260507221551 49 0 0.0 0.9 0.00 0.00 0.00 74 1015.1
20260507220051 50 0 0.0 1.7 0.00 0.00 0.00 73 1015.3
20260507214613 51 0 0.0 0.0 0.00 0.00 0.00 72 1015.4
20260507213104 52 0 0.0 0.0 0.00 0.00 0.00 72 1015.4
20260507211607 52 0 0.0 0.9 0.00 0.00 0.00 71 1015.4
20260507210055 53 0 0.0 0.0 0.00 0.00 0.00 70 1015.4
20260507204547 53 0 0.0 0.0 0.00 0.00 0.00 70 1015.1
20260507203059 54 0 0.0 0.0 0.00 0.00 0.00 69 1015.0
20260507201552 54 0 0.0 0.0 0.00 0.00 0.00 68 1014.8
20260507200052 55 0 0.0 0.0 0.00 0.00 0.00 67 1014.4
20260507194615 55 0 0.0 0.0 0.00 0.00 0.00 67 1014.2
20260507193048 56 0 0.0 0.9 0.00 0.00 0.00 66 1014.1
20260507191550 56 0 0.0 0.9 0.00 0.00 0.00 66 1014.1
20260507190053 57 0 0.0 2.6 0.00 0.00 0.00 65 1014.2
20260507184603 58 170 0.0 2.6 0.00 0.00 0.00 64 1014.1
20260507183054 58 185 0.0 2.6 0.00 0.00 0.00 64 1014.1
20260507181552 58 176 0.0 1.7 0.00 0.00 0.00 63 1014.0
20260507174553 60 131 0.0 2.6 0.00 0.00 0.00 62 1013.8
20260507173054 60 136 0.0 4.3 0.00 0.00 0.00 61 1013.7
20260507171553 60 201 0.9 4.3 0.00 0.00 0.00 60 1013.7
20260507170052 60 191 0.0 2.6 0.00 0.00 0.00 58 1013.7
20260507164551 60 201 0.9 3.5 0.00 0.00 0.00 58 1013.8
20260507163101 60 0 0.0 4.3 0.00 0.00 0.00 58 1013.7
20260507161555 60 0 0.0 4.3 0.00 0.00 0.00 57 1013.7
20260507160052 61 217 0.0 4.3 0.00 0.00 0.00 56 1013.8
20260507154544 61 184 0.0 5.2 0.00 0.00 0.00 58 1013.8
20260507153051 62 202 0.9 4.3 0.00 0.00 0.00 55 1013.8
20260507151549 62 0 0.9 3.5 0.00 0.00 0.00 48 1013.8
20260507150058 62 0 0.9 2.6 0.00 0.00 0.00 49 1013.8
20260507144554 62 83 0.0 3.5 0.00 0.00 0.00 49 1013.9
20260507143101 61 78 0.9 3.5 0.00 0.00 0.00 50 1014.0
20260507141553 61 73 0.0 2.6 0.00 0.00 0.00 49 1014.1
20260507140053 60 73 0.0 2.6 0.00 0.00 0.00 48 1014.1
20260507134550 60 69 0.0 4.3 0.00 0.00 0.00 49 1014.2
20260507133103 61 0 0.0 2.6 0.00 0.00 0.00 46 1014.3
20260507131611 61 0 0.0 4.3 0.00 0.00 0.00 45 1014.1
20260507130053 64 46 0.9 2.6 0.00 0.00 0.00 41 1014.1
20260507124551 65 105 0.9 4.3 0.00 0.00 0.00 44 1014.2
20260507123048 63 69 0.9 3.5 0.00 0.00 0.00 44 1014.2
20260507121550 59 38 0.0 1.7 0.00 0.00 0.00 50 1014.4
20260507120054 59 0 0.0 1.7 0.00 0.00 0.00 48 1014.4
20260507114553 58 0 0.0 1.7 0.00 0.00 0.00 50 1014.5
20260507113056 58 0 0.9 1.7 0.00 0.00 0.00 49 1014.4
20260507111550 58 33 0.0 2.6 0.00 0.00 0.00 51 1014.5
20260507110049 59 0 0.0 2.6 0.00 0.00 0.00 51 1014.6
20260507104553 62 93 0.9 2.6 0.00 0.00 0.00 49 1014.4
20260507103049 58 61 0.0 1.7 0.00 0.00 0.00 54 1014.7
20260507101556 59 109 0.9 2.6 0.00 0.00 0.00 52 1014.8
20260507100047 56 0 0.0 1.7 0.00 0.00 0.00 60 1014.9
20260507094552 56 0 0.0 1.7 0.00 0.00 0.00 59 1015.0
20260507093054 57 0 0.0 1.7 0.00 0.00 0.00 61 1014.9
20260507091550 57 0 0.0 2.6 0.00 0.00 0.00 65 1014.9
20260507090044 58 92 0.9 2.6 0.00 0.00 0.00 66 1014.9
20260507084551 56 0 0.0 2.6 0.00 0.00 0.00 70 1014.9
20260507083044 56 109 0.9 3.5 0.00 0.00 0.00 74 1014.9
20260507081551 54 155 0.0 2.6 0.00 0.00 0.00 79 1014.7
20260507080049 51 0 0.0 2.6 0.00 0.00 0.00 87 1014.7
20260507074550 50 75 0.0 3.5 0.00 0.00 0.00 87 1014.7
20260507073050 48 0 0.0 2.6 0.00 0.00 0.00 89 1014.8
20260507071606 45 0 0.0 1.7 0.00 0.00 0.00 89 1014.6
20260507070048 43 0 0.0 2.6 0.00 0.00 0.00 89 1014.6
20260507064546 42 0 0.0 0.9 0.00 0.00 0.00 88 1014.6
20260507063046 40 0 0.0 1.7 0.00 0.00 0.00 87 1014.8
20260507061558 39 0 0.0 0.0 0.00 0.00 0.00 86 1014.7
20260507060056 38 0 0.0 0.0 0.00 0.00 0.00 86 1014.5
20260507054546 38 0 0.0 0.9 0.00 0.00 0.00 86 1014.5
20260507053115 38 0 0.0 0.9 0.00 0.00 0.00 85 1014.4
20260507051550 38 0 0.0 0.9 0.00 0.00 0.00 85 1014.1
20260507050046 38 0 0.0 0.9 0.00 0.00 0.00 84 1014.1
20260507044556 38 0 0.0 0.9 0.00 0.00 0.00 84 1014.0
20260507043051 39 0 0.0 0.9 0.00 0.00 0.00 84 1013.9
20260507041547 39 0 0.0 0.9 0.00 0.00 0.00 84 1014.0
20260507040055 39 0 0.0 0.0 0.00 0.00 0.00 84 1014.2
20260507034551 40 0 0.0 0.0 0.00 0.00 0.00 84 1014.1
20260507033052 40 0 0.0 0.0 0.00 0.00 0.00 83 1014.1
20260507031554 40 0 0.0 0.0 0.00 0.00 0.00 83 1014.2
20260507030053 40 0 0.0 0.0 0.00 0.00 0.00 83 1014.1